[[{"header":{"parameterUnit":"m.s-1","parameterCategory":1,"la1":30.2991,"la2":30.254,"lo1":-89.0895,"lo2":-89.0444,"dy":0.0017,"dx":0.0017,"nx":28,"ny":28,"refTime":"2024-05-30T21:00:00:Z","depth":0,"parameterNumber":2,"parameterNumberName":"U-component_of_WINDS"},"data":[0,0,0,0,0,0,0,0,0,0,0,0,0,0,0,0,0,0,0,0,0,0,0,0,0,0,0,0,0,0,0,0,0,0,0,0,0,0,0,0,0,0,0,0,0,0,0,0,0,0,0,0,0,0,0,0,0,0,-2.8817,-2.8817,0,-2.8782,-2.8782,-2.8781,-2.8672,-2.867,-2.8667,-2.8665,-2.8632,-2.8633,-2.8635,0,0,0,0,0,0,0,0,0,0,0,0,0,-2.8792,-2.8793,-2.8817,-2.8817,-2.8816,-2.8782,-2.8782,-2.8781,-2.8673,-2.867,-2.8667,-2.8664,-2.8631,-2.8633,-2.8635,0,0,0,0,0,0,0,0,0,0,0,0,0,-2.8785,-2.8794,-2.8817,-2.8758,-2.8752,-2.8782,-2.8782,-2.8781,-2.8673,-2.867,-2.8666,-2.8663,-2.8631,-2.8633,-2.8635,-2.8721,0,0,-2.8641,-2.8642,0,0,0,0,0,0,0,0,-2.8786,-2.8786,-2.8767,-2.8762,-2.8756,-2.8728,-2.8761,-2.8761,-2.8674,-2.8703,-2.8665,-2.8661,-2.8667,-2.8666,-2.8667,-2.8719,-2.8718,-2.8641,-2.8643,-2.8644,-2.8644,0,0,0,0,0,0,0,-2.8786,-2.8787,-2.8803,-2.8767,-2.876,-2.8734,-2.8729,-2.876,-2.8706,-2.87,-2.8692,-2.869,-2.8663,-2.8666,-2.8666,-2.8717,-2.8641,-2.8643,-2.8645,-2.8645,-2.8839,-2.8842,0,0,0,0,0,0,-2.8795,-2.8788,-2.8804,-2.8802,-2.8762,-2.8737,-2.8732,-2.874,-2.8705,-2.8696,-2.8693,-2.8685,-2.8664,-2.8663,-2.8664,-2.8763,-2.8644,-2.8646,-2.8647,-2.8835,-2.884,-2.8844,0,0,0,0,0,0,-2.8795,-2.8797,-2.8806,-2.8793,-2.8792,-2.8741,-2.8752,-2.8742,-2.8744,-2.8699,-2.869,-2.8705,-2.8661,-2.8661,-2.8707,-2.8761,-2.8646,-2.8648,-2.883,-2.8836,-2.8842,-2.8962,0,0,0,0,0,0,-2.8795,-2.8798,-2.8829,-2.8794,-2.8793,-2.8849,-2.8756,-2.8744,-2.8747,-2.8737,-2.8708,-2.87,-2.8658,-2.8705,-2.871,-2.8761,-2.865,-2.8825,-2.8833,-2.884,-2.8953,-2.8971,-2.8987,0,0,0,0,0,-2.8794,-2.8865,-2.8832,-2.8834,-2.8831,-2.8853,-2.8852,-2.8801,-2.8752,-2.8784,-2.8755,-2.8701,-2.8754,-2.8711,-2.8715,-2.8768,-2.8822,-2.8831,-2.8839,-2.8946,-2.8968,-2.8987,0,0,0,0,0,0,-2.8908,-2.8859,-2.8822,-2.8883,-2.8873,-2.8834,-2.8873,-2.8826,-2.883,-2.882,-2.8757,-2.8752,-2.8808,-2.8792,-2.8745,-2.885,-2.8779,-2.8789,-2.8858,-2.8879,-2.8896,-2.8899,-2.8652,0,0,0,0,0,-2.894,-2.8961,-2.8917,-2.8976,-2.8973,-2.8924,-2.8931,-2.8893,-2.888,-2.8875,-2.885,-2.8841,-2.8855,-2.8866,-2.8876,-2.895,-2.8943,-2.8989,-2.9005,-2.9019,-2.903,-2.9069,-2.909,-2.8873,-2.8872,-2.8872,0,0,-2.9008,-2.8983,-2.9,-2.8998,-2.8986,-2.901,-2.8921,-2.895,-2.8967,-2.888,-2.8922,-2.8904,-2.8889,-2.895,-2.8975,-2.8938,-2.9088,-2.9031,-2.9042,-2.9045,-2.908,-2.9101,-2.9119,-2.8879,-2.8877,-2.8876,0,0,-2.9143,-2.9126,-2.9173,-2.9162,-2.9144,-2.9111,-2.9123,-2.9091,-2.9075,-2.9116,-2.9052,-2.9072,-2.9097,-2.909,-2.909,-2.9222,-2.9173,-2.9227,-2.9316,-2.9355,-2.9373,-2.9387,-2.9437,-2.9455,-2.9237,-2.9237,-2.9237,0,-2.9229,-2.9261,-2.9204,-2.9237,-2.9239,-2.916,-2.9208,-2.9201,-2.9188,-2.9191,-2.915,-2.9181,-2.9165,-2.9224,-2.9257,-2.9258,-2.9271,-2.9231,-2.9374,-2.9389,-2.9402,-2.9448,-2.9467,-2.9244,-2.9243,-2.9243,-2.9242,0,-2.9369,-2.9393,-2.9434,-2.9423,-2.9428,-2.9469,-2.9419,-2.9432,-2.9393,-2.9365,-2.9409,-2.9387,-2.9393,-2.9403,-2.9366,-2.9458,-2.9436,-2.9385,-2.9313,-2.9431,-2.9473,-2.949,-2.9254,-2.9251,-2.9249,-2.9248,0,0,-2.9577,-2.9533,-2.9549,-2.9543,-2.9517,-2.9535,-2.9573,-2.9577,-2.9591,-2.9584,-2.9616,-2.9639,-2.9592,-2.9592,-2.9553,-2.9587,-2.9696,-2.9533,-2.9531,-2.9566,-2.9798,-2.9838,-2.9859,-2.9662,-2.9666,-2.9668,-2.98,0,-2.9706,-2.9768,-2.9717,-2.9788,-2.9811,-2.9736,-2.9769,-2.9757,-2.9732,-2.9748,-2.9719,-2.9738,-2.9674,-2.9674,-2.9704,-2.9677,-2.9742,-2.9666,-2.9693,-2.9695,-2.9702,-2.9881,-2.9923,-3.0049,-2.9816,-2.9819,-2.9821,0,-2.9866,-2.9866,-2.994,-2.991,-2.9918,-2.9948,-2.9949,-2.9964,-2.995,-2.9929,-2.9929,-2.9881,-2.9917,-2.9844,-2.9894,-2.9844,-2.9851,-2.984,-2.9843,-2.9846,-2.9767,-2.9891,-3.0088,-3.0108,-2.9846,-2.9844,-2.9842,0,-3.0013,-3.0032,-3.0078,-3.0076,-3.0041,-3.0065,-3.0052,-3.0034,-3.004,-3.0041,-3.0045,-3.005,-3.0053,-3.0059,-3.0014,-2.9965,-3.0071,-2.9994,-3.0056,-3.0058,-3.0084,-3.0083,-3.0287,-3.0085,-3.0085,-3.0085,-3.0084,0,-3.0165,-3.0213,-3.0144,-3.0173,-3.0226,-3.0167,-3.0221,-3.02,-3.0185,-3.0209,-3.0144,-3.0169,-3.0107,-3.0125,-3.009,-3.0138,-3.014,-3.0125,-3.0116,-3.0133,-3.0135,-3.0139,-3.013,-3.009,-3.0088,-3.0087,-3.0087,0,-3.0339,-3.0294,-3.034,-3.0304,-3.0296,-3.0336,-3.0305,-3.0332,-3.0301,-3.0334,-3.0338,-3.0291,-3.031,-3.0265,-3.0277,-3.0253,-3.0323,-3.0298,-3.0328,-3.0321,-3.0387,-3.0382,-3.0602,-3.0629,-3.0408,-3.041,-3.0412,0,-3.0439,-3.0475,-3.0442,-3.0454,-3.0444,-3.0463,-3.0469,-3.0413,-3.0422,-3.0409,-3.0437,-3.045,-3.0457,-3.0491,-3.0459,-3.0468,-3.0445,-3.0521,-3.0446,-3.0462,-3.0449,-3.0449,-3.0453,-3.0538,-3.0541,-3.0543,-3.0544,0,-3.0624,-3.06,-3.0611,-3.0615,-3.0623,-3.0624,-3.0619,-3.0633,-3.0572,-3.0586,-3.0604,-3.061,-3.0622,-3.0637,-3.0639,-3.0626,-3.0577,-3.0568,-3.0583,-3.0602,-3.0619,-3.0613,-3.0373,-3.0564,-3.0562,-3.056,-3.0559,-3.0559,-3.0766,-3.0795,-3.0776,-3.0791,-3.0781,-3.0779,-3.0802,-3.0775,-3.0788,-3.0793,-3.0759,-3.0785,-3.077,-3.0768,-3.0761,-3.0781,-3.0746,-3.0768,-3.0774,-3.0781,-3.0793,-3.0614,-3.0781,-3.078,-3.0779,-3.0779,-3.0778,0,-3.0949,-3.0934,-3.0947,-3.0943,-3.0955,-3.0905,-3.0898,-3.0912,-3.0935,-3.0925,-3.0934,-3.0955,-3.0969,-3.0938,-3.0947,-3.0969,-3.0947,-3.0974,-3.0973,-3.0972,-3.0822,-3.0809,-3.0992,-3.0992,-3.0992,-3.0992,-3.0992,-3.0992,-3.1046,-3.1093,-3.1067,-3.1109,-3.1092,-3.1117,-3.1117,-3.1115,-3.1107,-3.1134,-3.1145,-3.1123,-3.1106,-3.1113,-3.1124,-3.1114,-3.1122,-3.1158,-3.1141,-3.1003,-3.0982,-3.0962,-3.095,-3.1159,-3.116,-3.1289,-3.129,-3.1291]},{"header":{"parameterUnit":"m.s-1","parameterCategory":1,"la1":30.2991,"la2":30.254,"lo1":-89.0895,"lo2":-89.0444,"dy":0.0017,"dx":0.0017,"nx":28,"ny":28,"refTime":"2024-05-30T21:00:00:Z","depth":0,"parameterNumber":3,"parameterNumberName":"V-component_of_WINDS"},"data":[0,0,0,0,0,0,0,0,0,0,0,0,0,0,0,0,0,0,0,0,0,0,0,0,0,0,0,0,0,0,0,0,0,0,0,0,0,0,0,0,0,0,0,0,0,0,0,0,0,0,0,0,0,0,0,0,0,0,-1.7942,-1.7943,0,-1.8055,-1.8056,-1.8057,-1.8064,-1.8063,-1.8062,-1.8061,-1.8179,-1.8183,-1.8187,0,0,0,0,0,0,0,0,0,0,0,0,0,-1.7732,-1.7736,-1.7941,-1.7943,-1.7944,-1.8054,-1.8056,-1.8058,-1.8065,-1.8063,-1.8061,-1.806,-1.8177,-1.8182,-1.8187,0,0,0,0,0,0,0,0,0,0,0,0,0,-1.7832,-1.7737,-1.7941,-1.7961,-1.7964,-1.8054,-1.8056,-1.8058,-1.8065,-1.8063,-1.8061,-1.8059,-1.8175,-1.8182,-1.8188,-1.8267,0,0,-1.8208,-1.8211,0,0,0,0,0,0,0,0,-1.7826,-1.784,-1.7957,-1.796,-1.7963,-1.8043,-1.8026,-1.8128,-1.8065,-1.8027,-1.8061,-1.8058,-1.8135,-1.8145,-1.8171,-1.8273,-1.8278,-1.8209,-1.8213,-1.8215,-1.8217,0,0,0,0,0,0,0,-1.782,-1.7835,-1.7986,-1.7958,-1.7962,-1.7965,-1.7977,-1.8045,-1.809,-1.803,-1.8031,-1.8044,-1.8137,-1.8164,-1.8173,-1.8279,-1.8208,-1.8214,-1.8218,-1.8221,-1.8451,-1.8453,0,0,0,0,0,0,-1.7809,-1.7829,-1.7983,-1.799,-1.7889,-1.797,-1.7983,-1.802,-1.809,-1.8099,-1.8045,-1.8044,-1.8154,-1.8166,-1.8178,-1.8274,-1.8215,-1.8221,-1.8225,-1.8449,-1.8451,-1.8454,0,0,0,0,0,0,-1.7804,-1.7822,-1.7978,-1.791,-1.793,-1.7975,-1.8016,-1.8023,-1.805,-1.8101,-1.811,-1.8065,-1.8153,-1.8168,-1.8244,-1.8279,-1.8224,-1.823,-1.8446,-1.845,-1.8453,-1.8469,0,0,0,0,0,0,-1.7798,-1.7821,-1.7851,-1.791,-1.7933,-1.8043,-1.8018,-1.8026,-1.8061,-1.806,-1.8122,-1.8131,-1.8153,-1.8235,-1.8251,-1.8287,-1.8235,-1.8443,-1.8448,-1.8452,-1.8465,-1.8472,-1.8478,0,0,0,0,0,-1.7791,-1.7852,-1.7852,-1.7871,-1.7972,-1.8045,-1.8058,-1.8082,-1.8064,-1.8095,-1.8128,-1.8129,-1.8272,-1.8242,-1.8261,-1.8299,-1.8441,-1.8446,-1.8451,-1.8463,-1.8471,-1.8478,0,0,0,0,0,0,-1.7796,-1.786,-1.7861,-1.7943,-1.7988,-1.8046,-1.8086,-1.809,-1.8142,-1.8139,-1.8166,-1.818,-1.8255,-1.8285,-1.8251,-1.8378,-1.8355,-1.8363,-1.8357,-1.8365,-1.8371,-1.8363,-1.8241,0,0,0,0,0,-1.7807,-1.786,-1.7913,-1.798,-1.8002,-1.804,-1.8073,-1.8087,-1.8135,-1.8155,-1.8193,-1.824,-1.8295,-1.8332,-1.8386,-1.8469,-1.8483,-1.8504,-1.851,-1.8515,-1.8523,-1.8569,-1.8579,-1.847,-1.847,-1.847,0,0,-1.783,-1.7871,-1.7903,-1.7982,-1.8019,-1.8074,-1.8056,-1.8116,-1.8157,-1.8164,-1.8238,-1.8267,-1.8322,-1.8401,-1.8439,-1.8428,-1.8556,-1.8522,-1.8525,-1.853,-1.8575,-1.8585,-1.8595,-1.8473,-1.8473,-1.8472,0,0,-1.79,-1.7936,-1.7996,-1.8032,-1.8088,-1.8112,-1.8126,-1.8183,-1.8202,-1.8277,-1.8283,-1.8332,-1.8428,-1.8466,-1.8498,-1.858,-1.8583,-1.8597,-1.8631,-1.8675,-1.8684,-1.8691,-1.8721,-1.8731,-1.8604,-1.8604,-1.8604,0,-1.7922,-1.8004,-1.8026,-1.8085,-1.812,-1.8127,-1.8188,-1.8223,-1.8293,-1.8317,-1.8303,-1.8422,-1.846,-1.8548,-1.8568,-1.8594,-1.8611,-1.8591,-1.868,-1.8688,-1.8696,-1.8725,-1.8736,-1.8606,-1.8605,-1.8605,-1.8605,0,-1.8029,-1.8086,-1.8127,-1.8194,-1.8233,-1.8293,-1.8324,-1.8361,-1.837,-1.8396,-1.8471,-1.8516,-1.8579,-1.86,-1.8611,-1.8691,-1.8683,-1.8674,-1.8651,-1.8707,-1.8735,-1.8746,-1.8608,-1.8607,-1.8607,-1.8606,0,0,-1.8108,-1.8184,-1.8199,-1.8229,-1.829,-1.8334,-1.8394,-1.8454,-1.8485,-1.8533,-1.8584,-1.8663,-1.8656,-1.8692,-1.8707,-1.8746,-1.8808,-1.8733,-1.8735,-1.8746,-1.8899,-1.8905,-1.8917,-1.881,-1.8812,-1.8813,-1.8894,0,-1.8185,-1.8291,-1.8311,-1.8403,-1.8456,-1.8463,-1.8515,-1.8557,-1.8582,-1.8631,-1.8659,-1.8715,-1.8701,-1.8722,-1.8761,-1.8792,-1.8839,-1.8787,-1.8858,-1.886,-1.8845,-1.8932,-1.8939,-1.9013,-1.8905,-1.8907,-1.8908,0,-1.829,-1.8339,-1.8436,-1.8488,-1.8511,-1.8558,-1.8614,-1.866,-1.8709,-1.8724,-1.8763,-1.8774,-1.8836,-1.8808,-1.8894,-1.8858,-1.8888,-1.8908,-1.8911,-1.892,-1.8889,-1.8944,-1.9037,-1.9049,-1.8925,-1.8924,-1.8923,0,-1.8339,-1.8429,-1.8498,-1.8524,-1.8586,-1.8619,-1.8646,-1.8693,-1.8727,-1.8777,-1.8799,-1.8855,-1.8887,-1.893,-1.8955,-1.8932,-1.9039,-1.9014,-1.9054,-1.9054,-1.9078,-1.9076,-1.9179,-1.9095,-1.9095,-1.9095,-1.9094,0,-1.8424,-1.8483,-1.8521,-1.8564,-1.863,-1.8653,-1.8718,-1.8745,-1.8786,-1.8835,-1.8843,-1.8889,-1.8918,-1.8968,-1.8988,-1.9056,-1.907,-1.9084,-1.9089,-1.9084,-1.9083,-1.9106,-1.9102,-1.9098,-1.9097,-1.9096,-1.9096,0,-1.849,-1.8518,-1.8594,-1.8647,-1.8661,-1.8708,-1.8753,-1.8795,-1.8818,-1.888,-1.8895,-1.8934,-1.8992,-1.9021,-1.9094,-1.9107,-1.9185,-1.9186,-1.9168,-1.917,-1.9209,-1.9206,-1.9331,-1.9349,-1.9253,-1.9254,-1.9254,0,-1.8543,-1.8589,-1.8646,-1.8678,-1.8706,-1.8759,-1.8794,-1.8817,-1.8854,-1.8911,-1.8946,-1.9005,-1.9053,-1.9146,-1.9181,-1.9237,-1.924,-1.928,-1.9248,-1.9242,-1.9241,-1.9239,-1.9243,-1.9286,-1.9287,-1.9288,-1.9288,0,-1.8635,-1.8646,-1.8696,-1.875,-1.8791,-1.8835,-1.8879,-1.8905,-1.8935,-1.8975,-1.9035,-1.9072,-1.9146,-1.9204,-1.9262,-1.9291,-1.9295,-1.9297,-1.931,-1.9306,-1.9294,-1.9302,-1.9185,-1.9295,-1.9294,-1.9294,-1.9293,-1.9293,-1.8697,-1.8738,-1.8784,-1.8838,-1.8873,-1.8913,-1.8955,-1.8983,-1.9033,-1.9094,-1.9105,-1.9168,-1.9214,-1.9292,-1.9322,-1.9372,-1.9364,-1.9382,-1.9386,-1.9391,-1.9393,-1.9285,-1.9383,-1.9383,-1.9383,-1.9382,-1.9382,0,-1.879,-1.8819,-1.8869,-1.8929,-1.8972,-1.897,-1.9018,-1.9054,-1.9109,-1.9151,-1.9198,-1.9266,-1.9322,-1.936,-1.9417,-1.945,-1.9453,-1.9464,-1.9462,-1.9469,-1.9397,-1.9381,-1.946,-1.946,-1.946,-1.946,-1.946,-1.946,-1.8843,-1.8912,-1.8928,-1.9013,-1.9042,-1.9103,-1.9131,-1.9167,-1.9201,-1.9276,-1.9322,-1.9346,-1.9387,-1.9446,-1.9498,-1.9507,-1.9528,-1.954,-1.9549,-1.9482,-1.9474,-1.9466,-1.9451,-1.9544,-1.9544,-1.9617,-1.9618,-1.9618]}]]